x

9439040 - Astoria, Or (asto3) Weather Station

12:18 - Sat 30th Apr 2016 All times are PDT. -7 hours from GMT.

  • Wind
    2mph, 8mph gusts
  • Sea Temp 56°f
  • Luft Temp 56°f
  • Sea Pressure 1028.9mb
  • 9439040 - Astoria, Or
  • 9439040 - Astoria, Or

More Historic Weather Station data

Upgrade to MSW Pro to gain access to the past 30 days of data for over 8000 Wavebouys and Weather Stations around the globe.

Join Pro

Comparision Forecast

View Surf forecast
   
Sa 04/30 12:18 2 8 mph 1028.9mb 56f 56f
12:12 5 9 mph 1028.9mb 56f 56f
12:06 3 8 mph 1028.9mb 56f 56f
12:00 2 8 mph 1028.9mb 56f 56f
11:54 2 8 mph 1029mb 56f 56f
11:48 3 7 mph 1029mb 56f 56f
11:42 2 7 mph 1029mb 56f 56f
11:36 5 7 mph 1029mb 56f 55f
11:30 2 6 mph 1029mb 56f 56f
11:24 2 5 mph 1029mb 56f 56f
11:18  -  mph 1029mb 56f 56f
11:12  -  mph 1028.9mb 56f 56f
11:06  -  mph 1029mb 56f 56f
11:00  -  2 mph 1029mb 56f 56f
10:54 1 2 mph 1029mb 56f 56f
10:48 1 2 mph 1029mb 56f 56f
10:42 2 3 mph 1028.9mb 56f 55f
10:36 2 3 mph 1028.9mb 56f 55f
10:30 2
mph
1028.9mb 56f 54f
10:24 1 2 mph 1029mb 56f 55f
10:18 1 2 mph 1029mb 56f 55f
10:12 1 2 mph 1029mb 56f 54f
10:06 1 3 mph 1029.1mb 56f 54f
10:00 1 2 mph 1029mb 56f 55f
9:54  -  1 mph 1029.1mb 56f 55f
9:48 1 2 mph 1029.1mb 56f 55f
9:42  -  1 mph 1029.1mb 56f 55f
9:36  -  2 mph 1029.1mb 56f 55f
9:30 1 3 mph 1029.1mb 56f 54f
9:24 2 3 mph 1029.1mb 56f 53f
9:18  -  2 mph 1029.1mb 56f 54f
9:12 1 2 mph 1029mb 55f 53f
9:06 2 3 mph 1029mb 56f 53f
9:00 1 3 mph 1029.1mb 56f 53f
8:54 1 2 mph 1029.1mb 56f 53f
8:48  -  1 mph 1029mb 56f 54f
8:42  -  1 mph 1029mb 56f 54f
8:36 1
mph
1029mb 56f 53f
8:30  -  2 mph 1029mb 56f 52f
8:24 1 2 mph 1028.9mb 56f 51f
8:18 2 3 mph 1028.9mb 56f 51f
8:12 2 3 mph 1028.8mb 56f 51f
8:06 3
mph
1028.7mb 56f 51f
8:00  -  2 mph 1028.7mb 56f 51f
7:54  -  1 mph 1028.7mb 56f 51f
7:48 1 3 mph 1028.7mb - -
7:42 3
mph
1028.6mb - -
7:36 2 5 mph 1028.6mb - -
7:30 3 5 mph 1028.6mb 56f 50f
7:24 2 5 mph 1028.5mb 56f 51f
7:18 3 5 mph 1028.5mb 56f 51f
7:12 2 6 mph 1028.4mb 56f 50f
7:06 3 6 mph 1028.4mb 56f 50f
7:00 3
mph
1028.3mb 56f 50f
6:54 3 6 mph 1028.3mb 56f 50f
6:48 5 7 mph 1028.2mb 56f 50f
6:42 2 6 mph 1028.2mb 56f 50f
6:36 2 3 mph 1028.1mb 56f 51f
6:30  -  2 mph 1028.1mb 56f 51f
6:24 2 5 mph 1028mb 56f 51f
6:18 3 5 mph 1027.9mb 56f 51f
6:12 2 5 mph 1027.8mb 56f 51f
6:06 3 6 mph 1027.8mb 56f 51f
6:00 3 5 mph 1027.9mb 56f 51f
5:54 3 6 mph 1027.8mb 56f 52f
5:48 5 6 mph 1027.8mb 56f 51f
5:42 3 6 mph 1027.7mb 56f 51f
5:36 5 6 mph 1027.7mb 56f 51f
5:30 5 6 mph 1027.6mb 56f 52f
5:24 6 7 mph 1027.6mb 56f 52f
5:18 7 9 mph 1027.6mb 56f 52f
5:12 7 8 mph 1027.6mb 56f 52f
5:06 7 9 mph 1027.6mb 56f 52f
5:00 7 11 mph 1027.6mb 56f 52f
4:54 7 10 mph 1027.6mb 56f 52f
4:48 8 9 mph 1027.6mb 56f 52f
4:42 7 10 mph 1027.5mb 56f 52f
4:36 6 10 mph 1027.5mb 56f 52f
4:30 6 10 mph 1027.5mb 56f 52f
4:24 7 9 mph 1027.5mb 56f 52f
4:18 8 10 mph 1027.5mb 56f 52f
4:12 8 9 mph 1027.5mb 56f 52f
4:06 5 9 mph 1027.5mb 56f 52f
4:00 8 10 mph 1027.5mb 56f 52f
3:54 7 10 mph 1027.5mb 56f 52f
3:48 7 11 mph 1027.4mb 56f 52f
3:42 8 13 mph 1027.3mb 56f 52f
3:36 7 11 mph 1027.2mb 56f 52f
3:30 6 11 mph 1027.2mb 56f 52f
3:24 8 10 mph 1027.2mb 56f 52f
3:18 5 8 mph 1027.2mb 56f 52f
3:12 3 7 mph 1027.1mb 56f 52f
3:06 3 6 mph 1027.2mb 56f 52f
3:00 5 9 mph 1027.1mb 55f 52f
2:54 3 8 mph 1027.1mb 55f 52f
2:48 7 11 mph 1027.1mb 55f 52f
2:42 8 10 mph 1027.1mb 55f 52f
2:36 5 9 mph 1027mb 55f 52f
2:30 7 11 mph 1027mb 55f 52f
2:24 7 11 mph 1027mb 55f 52f
2:18 7 9 mph 1027mb 55f 52f
2:12 5 11 mph 1026.9mb 55f 52f
2:06 6 11 mph 1026.9mb 55f 52f
2:00 3 8 mph 1026.8mb 55f 52f
1:54 7 13 mph 1026.8mb 55f 52f
1:48 9 13 mph 1026.7mb 55f 52f
1:42 7 10 mph 1026.7mb 55f 52f
1:36 5 10 mph 1026.7mb 56f 52f
1:30 5 9 mph 1026.7mb 56f 52f
1:24 3 9 mph 1026.7mb 56f 52f
1:18 9 11 mph 1026.8mb 56f 52f
1:12 9 10 mph 1026.8mb 56f 52f
1:06 8 11 mph 1026.8mb 56f 52f
1:00 10 14 mph 1026.7mb 56f 52f
12:54 8 11 mph 1026.7mb 56f 52f
12:48 8 11 mph 1026.7mb 56f 53f
12:42 9 11 mph 1026.6mb 56f 53f
12:36 10 13 mph 1026.6mb 56f 52f
12:30 8 10 mph 1026.5mb 56f 52f
12:24 8 10 mph 1026.5mb 56f 52f
12:18 5 16 mph 1026.6mb 56f 52f
12:12 5 8 mph 1026.5mb 56f 52f
12:06 3 6 mph 1026.5mb 56f 52f
12:00  -  5 mph 1026.5mb 56f 52f
Fr 04/29 11:54 1 6 mph 1026.5mb 56f 52f
11:48 7 9 mph 1026.5mb 57f 52f
11:42 3 10 mph 1026.5mb 57f 52f
11:36 8 10 mph 1026.5mb 57f 52f
11:30 8 10 mph 1026.5mb 57f 52f
11:24 3 6 mph 1026.4mb 57f 52f
11:18 5 6 mph 1026.5mb 56f 52f
11:12 2 5 mph 1026.4mb 56f 52f
11:06 2 9 mph 1026.4mb 56f 52f
11:00 3 6 mph 1026.3mb 56f 52f
10:54 6 8 mph 1026.3mb 56f 52f
10:48 6 8 mph 1026.3mb - -
10:42 2 9 mph 1026.3mb - -
10:36 5 11 mph 1026.2mb - -
10:30 2 6 mph 1026.1mb 56f 52f
10:24 7 8 mph 1026.1mb 56f 52f
10:18 7 10 mph 1026.1mb 56f 52f
10:12 7 11 mph 1026mb 56f 52f
10:06 8 10 mph 1026.1mb 56f 52f
10:00 5 13 mph 1026.1mb 56f 52f
9:54 9 13 mph 1026mb 56f 52f
9:48 7 13 mph 1026mb 56f 52f
9:42 9 13 mph 1025.9mb 56f 52f
9:36 10 14 mph 1025.8mb 56f 53f
9:30 10 15 mph 1025.7mb 56f 53f
9:24 11 15 mph 1025.5mb 57f 53f
9:18 13 16 mph 1025.4mb 57f 53f
9:12 9 16 mph 1025.3mb 57f 53f
9:06 13 15 mph 1025.2mb 57f 53f
9:00 13 15 mph 1025.1mb 57f 53f
8:54 13 17 mph 1025mb 57f 53f
8:48 10 15 mph 1024.9mb 57f 53f
8:42 11 18 mph 1024.9mb 57f 53f
8:36 11 20 mph 1024.9mb 57f 53f
8:30 13 15 mph 1024.8mb 57f 53f
8:24 11 18 mph 1024.7mb 57f 53f
8:18 13 17 mph 1024.7mb 57f 53f
8:12 14 18 mph 1024.6mb 57f 53f
8:06 13 16 mph 1024.5mb 57f 53f
8:00  -  mph - 57f 53f
7:54  -  mph - 57f 54f
7:48 15 18 mph 1024.3mb 57f -
7:42 14 18 mph 1024.2mb 57f -
7:36 11 16 mph 1024.3mb 57f -
7:30 13 17 mph 1024.2mb 57f -
7:24 14 17 mph 1024.2mb 57f -
7:18 14 17 mph 1024.2mb 57f 55f
7:12 14 17 mph 1024.1mb 57f 55f
7:06 15 20 mph 1024mb 57f 55f
7:00  -  mph 1024mb 57f 55f
6:54  -  mph 1023.9mb 57f 55f
6:48 8 10 mph 1023.8mb 57f -
6:42 8 10 mph 1023.7mb 57f -
6:36 8 11 mph 1023.7mb 57f -
6:30  -  mph - 57f -
6:24  -  mph - 57f -
6:18 7 10 mph 1023.7mb 57f 55f
6:12 8 11 mph 1023.7mb 57f 55f
6:06 6 11 mph 1023.7mb 57f 55f
6:00  -  mph 1023.6mb 57f 55f
5:54  -  mph 1023.6mb 57f 55f
5:48  -  mph 1023.5mb - -
5:42  -  mph 1023.4mb - -
5:36  -  mph 1023.4mb - -
5:30  -  mph 1023.3mb 57f -
5:24  -  mph 1023.2mb 57f -
5:18  -  mph 1023.2mb 57f 56f
5:12  -  mph 1023.2mb 57f 56f
5:06  -  mph 1023.1mb 58f 56f
5:00  -  mph 1023.1mb 58f -
4:54  -  mph 1023.1mb 58f -
4:48  -  mph 1023.1mb - -
4:42  -  mph 1023mb - -
4:36  -  mph 1022.9mb - -
4:30 1 8 mph 1023mb 57f 57f
4:24 5 8 mph 1023mb 57f 56f
4:18  -  mph 1022.8mb 57f 58f
4:12  -  mph 1022.8mb 57f 56f
4:06  -  mph 1022.8mb 57f 57f
4:00  -  mph 1022.7mb 57f 57f
3:54  -  mph 1022.7mb 57f 58f
3:48  -  mph 1022.7mb 57f -
3:42  -  mph 1022.7mb 57f -
3:36  -  mph 1022.7mb 57f -
3:30 1 6 mph 1022.5mb 57f -
3:24 1 3 mph 1022.5mb 57f -
3:18 2 5 mph 1022.4mb 57f 58f
3:12 1 5 mph 1022.4mb 57f 57f
3:06 1 5 mph 1022.3mb 57f 58f
3:00  -  mph 1022.3mb 57f 57f
2:54  -  mph 1022.2mb 57f 57f
2:48 1 6 mph 1022.1mb 57f -
2:42 1 6 mph 1022.1mb 57f -
2:36 2 8 mph 1022mb 57f -
2:30 2 7 mph 1022mb 57f 56f
2:24 6 11 mph 1021.9mb 57f 56f
2:18 8 11 mph 1021.9mb 57f 56f
2:12 7 11 mph 1021.9mb 57f 55f
2:06 7 11 mph 1021.9mb 57f 56f
2:00 5 11 mph 1021.9mb 57f 56f
1:54 7 13 mph 1021.9mb 57f 55f
1:48 6 9 mph 1021.9mb 57f 55f
1:42 3 11 mph 1021.9mb 57f 55f
1:36 6 14 mph 1021.9mb 57f 54f
1:30 3 15 mph 1021.8mb 57f 54f
1:24 7 14 mph 1021.8mb 57f 54f
1:18 7 15 mph 1021.8mb 57f 54f
1:12 8 15 mph 1021.8mb 57f 54f
1:06 11 15 mph 1021.7mb 57f 54f
1:00 9 14 mph 1021.6mb 57f 54f
12:54 7 13 mph 1021.6mb 57f 53f
12:48 8 14 mph 1021.6mb 56f 53f
12:42 2 11 mph 1021.6mb 56f 54f
12:36 8 15 mph 1021.5mb 56f 54f
12:30 7 11 mph 1021.5mb 56f 54f
12:24 6 11 mph 1021.5mb 56f 54f
12:18 3 9 mph 1021.5mb 56f 53f
12:12 3 9 mph 1021.5mb 56f 54f
12:06 2 7 mph 1021.5mb 56f 55f
12:00 2 7 mph 1021.5mb 56f 54f
11:54 5 8 mph 1021.4mb 56f 54f
11:48  -  7 mph 1021.5mb 56f 55f
11:42 3 10 mph 1021.6mb 56f 54f
11:36 1 6 mph 1021.6mb 56f 54f
11:30 3 10 mph 1021.6mb 56f 54f
11:24 1 6 mph 1021.7mb 56f 54f
11:18  -  8 mph 1021.7mb 56f 53f
11:12 2 7 mph 1021.6mb 56f 53f
11:06 2 8 mph 1021.6mb 56f 53f
11:00 2 9 mph 1021.5mb 56f 53f
10:54 3 13 mph 1021.5mb 56f 53f
10:48 9 14 mph 1021.4mb 56f 53f
10:42 3 10 mph 1021.5mb 56f 53f
10:36 1 7 mph 1021.5mb 56f 53f
10:30 6 8 mph 1021.4mb 56f 52f
10:24 2 9 mph 1021.4mb 56f 52f
10:18 5 8 mph 1021.3mb 56f 52f
10:12 3 8 mph 1021.3mb 56f 53f
10:06 3 9 mph 1021.3mb 56f 52f
10:00 2 8 mph 1021.3mb 56f 52f
9:54 6 8 mph 1021.2mb 56f 51f
9:48 5 8 mph 1021.2mb 56f 51f
9:42 1 5 mph 1021.2mb 56f 51f
9:36 3 6 mph 1021.2mb 56f 51f
9:30 3 8 mph 1021.1mb 56f 51f
9:24 5 8 mph 1021mb 56f 52f
9:18 5 9 mph 1021mb 56f 52f
9:12 3 7 mph 1020.9mb 56f 53f
9:06 5 7 mph 1020.9mb 56f 53f
9:00  -  6 mph 1020.9mb 56f 53f
8:54 2 6 mph 1020.8mb 56f 53f
8:48 3 6 mph 1020.7mb 56f 53f
8:42  -  3 mph 1020.7mb 56f 53f
8:36  -  5 mph 1020.7mb 56f 53f
8:30 5 8 mph 1020.7mb 56f 52f
8:24 2 9 mph 1020.7mb 56f 52f
8:18 5 9 mph 1020.6mb 56f 52f
8:12 3 6 mph 1020.5mb 56f 52f
8:06 3 7 mph 1020.5mb 56f 52f
8:00 5 7 mph 1020.4mb 56f 52f
7:54 2 8 mph 1020.4mb 56f 52f
7:48 3 7 mph 1020.4mb 56f 52f
7:42 6 8 mph 1020.4mb 56f 52f
7:36 7 9 mph 1020.3mb 56f 52f
7:30 7 9 mph 1020.3mb 56f 52f
7:24 6 9 mph 1020.3mb 56f 52f
7:18 6 10 mph 1020.3mb 56f 52f
7:12 8 9 mph 1020.3mb 56f 52f
7:06 5 7 mph 1020.3mb 56f 52f
7:00 6 8 mph 1020.2mb 56f 52f
6:54 7 9 mph 1020.2mb 56f 52f
6:48 8 9 mph 1020.2mb 56f 52f
6:42 8 10 mph 1020.2mb 56f 52f
6:36 7 9 mph 1020.3mb 56f 52f
6:30 5 9 mph 1020.3mb 56f 52f
6:24 7 8 mph 1020.3mb 56f 52f
6:18 6 7 mph 1020.2mb 56f 52f
6:12 3 6 mph 1020.3mb 56f 51f
6:06 3 7 mph 1020.3mb 56f 51f
6:00 6 9 mph 1020.3mb 56f 51f
5:54 5 8 mph 1020.2mb 56f 51f
5:48 7 10 mph 1020.2mb 56f 51f
5:42 6 10 mph 1020.2mb 56f 51f
5:36 11 14 mph 1020.2mb 56f 51f
5:30 5 7 mph 1020.1mb 56f 52f
5:24 3 6 mph 1020.1mb 56f 52f
5:18 1 6 mph 1020.1mb 56f 52f
5:12  -  2 mph 1020.1mb 56f 52f
5:06 1 7 mph 1020.1mb 56f 52f
5:00 3 9 mph 1020.2mb 56f 51f
4:54 5 8 mph 1020.2mb 56f 52f
4:48 5 7 mph 1020.2mb 56f 52f
4:42 5 7 mph 1020.2mb 56f 52f
4:36 6 7 mph 1020.3mb 56f 51f
4:30 2 5 mph 1020.4mb 56f 51f
4:24 2 3 mph 1020.4mb 56f 51f
4:18 2 5 mph 1020.4mb 56f 51f
4:12 5 6 mph 1020.5mb 56f 51f
4:06 5 6 mph 1020.5mb 56f 51f
4:00 5 6 mph 1020.6mb 56f 50f
3:54 5 6 mph 1020.6mb 56f 50f
3:48 6 8 mph 1020.6mb 56f 50f
3:42 8 11 mph 1020.6mb 56f 50f
3:36 6 8 mph 1020.6mb 56f 51f
3:30 7 8 mph 1020.6mb 56f 50f
3:24 7 8 mph 1020.6mb 56f 50f
3:18 8 13 mph 1020.7mb 56f 50f
3:12 14 16 mph 1020.7mb 56f 50f
3:06 9 14 mph 1020.7mb 56f 52f
3:00 5 6 mph 1020.6mb 56f 53f
2:54 7 8 mph 1020.6mb 56f 53f
2:48 5 8 mph 1020.6mb 56f 53f
2:42 6 8 mph 1020.6mb 56f 53f
2:36 6 8 mph 1020.6mb 56f 53f
2:30 6 8 mph 1020.7mb 56f 52f
2:24 6 8 mph 1020.6mb 56f 53f
2:18 7 8 mph 1020.6mb 56f 53f
2:12 7 9 mph 1020.7mb 56f 53f
2:06 6 8 mph 1020.7mb 56f 53f
2:00 7 8 mph 1020.8mb 56f 53f
1:54 6 8 mph 1020.9mb 56f 53f
1:48 5 7 mph 1020.9mb 56f 53f
1:42 6 8 mph 1021mb 56f 53f
1:36 7 9 mph 1021mb 56f 53f
1:30 6 8 mph 1021mb 56f 53f
1:24 6 8 mph 1021mb 56f 53f
1:18 6 8 mph 1021mb 56f 53f
1:12 8 9 mph 1021mb 56f 52f
1:06 7 8 mph 1021mb 56f 52f
1:00 6 8 mph 1021.1mb 56f 53f
12:54 6 7 mph 1021.1mb 56f 52f
12:48 6 7 mph 1021.1mb 56f 53f
12:42 6 7 mph 1021.2mb 56f 52f
12:36 3 7 mph 1021.2mb 56f 53f
12:30 5 6 mph 1021.2mb 56f 52f
12:24 5 6 mph 1021.2mb 56f 52f
12:18 5 7 mph 1021.2mb 56f 53f
12:12 6 8 mph 1021.2mb 56f 53f
12:06 5 7 mph 1021.2mb 56f 53f
12:00 6 7 mph 1021.2mb 56f 52f
Do 04/28 11:54 3 6 mph 1021.1mb 56f 52f
11:48 3 6 mph 1021.1mb 56f 52f
11:42 5 6 mph 1021.1mb 56f 53f
11:36 6 7 mph 1021.1mb 56f 52f
11:30 3 6 mph 1021.2mb 56f 53f
11:24 5 6 mph 1021.2mb 56f 53f
11:18 5 7 mph 1021.3mb 56f 52f
11:12 6 7 mph 1021.3mb 56f 52f
11:06 5 8 mph 1021.4mb 56f 52f
11:00 6 7 mph 1021.4mb 56f 52f
10:54 6 7 mph 1021.4mb 56f 53f
10:48 5 6 mph 1021.4mb 56f 52f
10:42 3 5 mph 1021.4mb 56f 53f
10:36 5 6 mph 1021.5mb 56f 53f
10:30 5 7 mph 1021.5mb 56f 53f
10:24 6 7 mph 1021.5mb 56f 53f
10:18 2 6 mph 1021.5mb 56f 53f
10:12 3 6 mph 1021.5mb 56f 53f
10:06 3 7 mph 1021.5mb 56f 53f
10:00 3 8 mph 1021.5mb 56f 53f
9:54 3 7 mph 1021.6mb 56f 53f
9:48 6 8 mph 1021.6mb 56f 53f
9:42 2 6 mph 1021.7mb 56f 53f
9:36 2 5 mph 1021.6mb 56f 53f
9:30 3 6 mph 1021.6mb 56f 53f
9:24 2 6 mph 1021.6mb 56f 53f
9:18 2 6 mph 1021.6mb 56f 53f
9:12 5 7 mph 1021.6mb 56f 53f
9:06 6 9 mph 1021.6mb 56f 53f
9:00 6 8 mph 1021.6mb 56f 53f
8:54 3 7 mph 1021.5mb 56f 53f
8:48 2 6 mph 1021.4mb 56f 53f
8:42 5 6 mph 1021.3mb 56f 53f
8:36 5 7 mph 1021.3mb 56f 53f
8:30 5 8 mph 1021.2mb 56f 53f
8:24 7 8 mph 1021.1mb 56f 53f
8:18 6 8 mph 1021.1mb 56f 53f
8:12 7 8 mph 1021mb 56f 53f
8:06 6 9 mph 1021.1mb 56f 53f
8:00  -  mph 1021.1mb 56f 54f
7:54  -  mph 1021.1mb 57f 54f
7:48  -  mph 1021mb - -
7:42  -  mph 1021mb - -
7:36  -  mph 1020.9mb - -
7:30  -  mph 1020.9mb - -
7:24  -  mph 1021mb - -
7:18 3 9 mph 1020.9mb 57f 55f
7:12 8 11 mph 1021mb 57f 54f
7:06 7 11 mph 1021.2mb 57f 54f
7:00  -  mph 1021.2mb 57f -
6:54  -  mph 1021.2mb 57f -
6:48  -  mph 1021.2mb - -
6:42  -  mph 1021.1mb - -
6:36  -  mph 1021.1mb - -
6:30 2 6 mph 1021.1mb 57f 55f
6:24 2 6 mph 1021.2mb 57f 55f
6:18  -  mph 1021.3mb 57f 56f
6:12  -  mph 1021.2mb 57f 56f
6:06  -  mph 1021.3mb 57f 57f
6:00  -  mph 1021.3mb 57f 57f
5:54  -  mph 1021.4mb 57f 57f
5:48 2 6 mph 1021.4mb 57f -
5:42 2 6 mph 1021.4mb 57f -
5:36 2 6 mph 1021.3mb 57f -
5:30  -  mph 1021.2mb 57f -
5:24  -  mph 1021.2mb 57f -
5:18 3 8 mph 1021.2mb 57f 57f
5:12 1 8 mph 1021.1mb 57f 57f
5:06 2 9 mph 1021mb 57f 56f
5:00  -  mph 1021mb 57f 56f
4:54  -  mph 1021mb 57f 57f
4:48  -  mph 1021mb 57f 57f
4:42  -  mph 1021.1mb 57f 57f
4:36  -  mph 1021.1mb 57f 57f
4:30  -  mph 1021.1mb 57f -
4:24  -  mph 1021.2mb 57f -
4:18  -  mph 1021.3mb 57f -
4:12  -  mph 1021.3mb 57f -
4:06  -  mph 1021.3mb 57f -
4:00  -  mph 1021.3mb 57f 58f
3:54  -  mph 1021.2mb 57f 58f
3:48  -  mph 1021.3mb 57f 58f
3:42  -  mph 1021.5mb 57f 58f
3:36  -  mph 1021.5mb 57f 58f
3:30  -  mph 1021.6mb 57f 58f
3:24  -  mph 1021.6mb 57f 58f
3:18 2 6 mph 1021.6mb 57f 57f
3:12 2 6 mph 1021.7mb 57f 57f
3:06 2 7 mph 1021.8mb 57f 56f
3:00  -  mph 1021.8mb 57f 56f
2:54  -  mph 1021.8mb 57f 56f
2:48  -  mph 1021.8mb 57f -
2:42  -  mph 1021.8mb 57f -
2:36  -  mph 1021.8mb 57f -
2:30 2 6 mph 1021.8mb 57f 56f
2:24 2 8 mph 1021.8mb 57f 57f
2:18 2 5 mph 1021.6mb 57f 57f
2:12 2 6 mph 1021.5mb 57f 57f
2:06 1 6 mph 1021.4mb 57f 57f
2:00  -  5 mph 1021.4mb 57f 57f
1:54 1 6 mph 1021.3mb 57f 58f
1:48 1 6 mph 1021.2mb 57f 58f
1:42  -  5 mph 1021.1mb 57f 58f
1:36 1 6 mph 1021.1mb 57f 58f
1:30 2 6 mph 1021.1mb 57f 58f
1:24  -  3 mph 1021.1mb 57f 59f
1:18  -  2 mph 1021mb 57f 59f
1:12  -  3 mph 1020.9mb 57f 59f
1:06 1 5 mph 1020.9mb 57f 58f
1:00  -  2 mph 1020.9mb 57f 58f
12:54 1 6 mph 1020.9mb 57f 58f
12:48 1 5 mph 1020.9mb 57f 57f
12:42 2 6 mph 1020.9mb 57f 56f
12:36  -  5 mph 1020.9mb 57f 57f
12:30  -  6 mph 1021mb 57f 58f
12:24  -  2 mph 1020.9mb 57f 58f
12:18  -  3 mph 1020.9mb 57f 57f
12:12 2 5 mph 1020.9mb 57f 56f
12:06 1 3 mph 1020.9mb 57f 56f
12:00 2 5 mph 1021mb 57f 54f
11:54 2 5 mph 1021mb 57f 55f
11:48 2 3 mph 1021mb 56f 55f
11:42 2 6 mph 1021mb 56f 55f
11:36 2 6 mph 1021mb 56f 55f
11:30 3 6 mph 1021mb 56f 54f
11:24 5 6 mph 1021.1mb 56f 53f
11:18 5
mph
1021.1mb 56f 54f
11:12  -  2 mph 1021mb 56f 55f
11:06 1 3 mph 1021mb 56f 54f
11:00 2
mph
1021mb 56f 54f
10:54 2 3 mph 1021mb 56f 53f
10:48 2 3 mph 1021mb 56f 53f
10:42 2 3 mph 1020.9mb 56f 53f
10:36 2 5 mph 1020.9mb 56f 53f
10:30 3
mph
1020.8mb 56f 53f
10:24 2
mph
1020.8mb 56f 53f
10:18 2 3 mph 1020.8mb 56f 53f
10:12 2 3 mph 1020.8mb 56f 52f
10:06 2 3 mph 1020.8mb 55f 53f
10:00  -  2 mph 1020.8mb 55f 53f
9:54  -  3 mph 1020.9mb 55f 52f
9:48 3
mph
1020.9mb 55f 51f
9:42 2 5 mph 1020.9mb 55f 52f
9:36 2 5 mph 1020.9mb 55f 51f
9:30 2 6 mph 1020.9mb 55f 51f
9:24 5 6 mph 1021mb 55f 50f
9:18 3 6 mph 1021mb 55f 50f
9:12 5 6 mph 1021mb 55f 50f
9:06 3 5 mph 1021.1mb 55f 49f
9:00 5 6 mph 1021.2mb 55f 49f
8:54 5 6 mph 1021.1mb 55f 49f
8:48 5 6 mph 1021.1mb 55f 49f
8:42 3 7 mph 1021.2mb 55f 49f
8:36 2 6 mph 1021.2mb 55f 49f
8:30 2 5 mph 1021.1mb 55f 49f
8:24 5 6 mph 1021.1mb 55f 49f
8:18 2 5 mph 1021mb 55f 49f
8:12 1 6 mph 1021mb 55f 48f
8:06 6 8 mph 1021mb 55f 48f
8:00 5 8 mph 1020.9mb 55f 48f
7:54 6 9 mph 1020.9mb 55f 47f
7:48 6 8 mph 1020.8mb 55f -
7:42 2 7 mph 1020.7mb 55f -
7:36 6 9 mph 1020.7mb 55f -
7:30 6 8 mph 1020.7mb 55f 47f
7:24 6 9 mph 1020.7mb 56f 47f
7:18 6 8 mph 1020.7mb 56f 47f
7:12 6 7 mph 1020.7mb 56f 47f
7:06 3 7 mph 1020.7mb 55f 47f
7:00 5 7 mph 1020.7mb 55f 47f
6:54 6 8 mph 1020.6mb 55f 47f
6:48 3 5 mph 1020.5mb 55f -
6:42  -  1 mph 1020.5mb 55f -
6:36  -  2 mph 1020.4mb 55f -
6:30 1 2 mph 1020.4mb 55f 47f
6:24 1 2 mph 1020.4mb 55f 47f
6:18 2
mph
1020.4mb 55f 47f
6:12  -  mph 1020.4mb 55f 47f
6:06  -  1 mph 1020.4mb 55f 47f
6:00  -  1 mph 1020.4mb 55f 47f
5:54  -  1 mph 1020.4mb 55f 48f
5:48  -  2 mph 1020.4mb 55f 47f
5:42 1 6 mph 1020.4mb 55f 47f
5:36 3 7 mph 1020.4mb 55f 47f
5:30 5 7 mph 1020.3mb 55f 47f
5:24 1 2 mph 1020.2mb 55f 47f
5:18  -  1 mph 1020.1mb 55f 47f
5:12  -  2 mph 1020.1mb 55f 47f
5:06 1 2 mph 1020.1mb 55f 47f
5:00 1 5 mph 1020.2mb 55f 48f
4:54  -  1 mph 1020.2mb 55f 47f
4:48 1 2 mph 1020.2mb 55f 48f
4:42 2 3 mph 1020.2mb 55f 48f
4:36 2 6 mph 1020.2mb 55f 48f
4:30 3 5 mph 1020.1mb 55f 48f
4:24  -  1 mph 1020.1mb 55f 48f
4:18  -  1 mph 1020.1mb 55f 48f
4:12  -  1 mph 1020.1mb 55f 48f
4:06 1 3 mph 1020mb 55f 48f
4:00 2 7 mph 1020mb 55f 48f
3:54 3 5 mph 1019.9mb 55f 48f
3:48 2 5 mph 1020mb 55f 48f
3:42 2 3 mph 1019.9mb 55f 49f
3:36  -  1 mph 1019.9mb 55f 49f
3:30  -  2 mph 1019.9mb 55f 49f
3:24 1 2 mph 1019.9mb 55f 49f
3:18  -  1 mph 1019.9mb 55f 49f
3:12 1 2 mph 1019.9mb 56f 49f
3:06 2 3 mph 1019.8mb 56f 49f
3:00 1 2 mph 1019.8mb 56f 49f
2:54  -  2 mph 1019.8mb 55f 49f
2:48  -  2 mph 1019.7mb 55f 49f
2:42 1 3 mph 1019.7mb 55f 49f
2:36 2 3 mph 1019.7mb 55f 49f
2:30 2
mph
1019.7mb 55f 49f
2:24  -  1 mph 1019.7mb 55f 50f
2:18 1 5 mph 1019.7mb 55f 50f
2:12  -  1 mph 1019.7mb 56f 49f
2:06  -  2 mph 1019.6mb 56f 49f
2:00 2 3 mph 1019.6mb 56f 49f
1:54 1 3 mph 1019.6mb 56f 50f
1:48 2
mph
1019.6mb 56f 51f
1:42  -  2 mph 1019.6mb 56f 51f
1:36 1 2 mph 1019.6mb 56f 51f
1:30  -  2 mph 1019.6mb 56f 50f
1:24 1 3 mph 1019.6mb 56f 50f
1:18 2
mph
1019.6mb 56f 51f
1:12 1 2 mph 1019.6mb 56f 51f
1:06 2 3 mph 1019.6mb 56f 51f
1:00  -  2 mph 1019.6mb 56f 51f
12:54 1 2 mph 1019.6mb 55f 51f
12:48 1 2 mph 1019.5mb 55f 51f
12:42 1 2 mph 1019.5mb 55f 51f
12:36 1 2 mph 1019.4mb 55f 51f
12:30  -  1 mph 1019.4mb 55f 51f
12:24 1 2 mph 1019.4mb 55f 50f
12:18 1 2 mph 1019.4mb 55f 50f
12:12 1 2 mph 1019.4mb 55f 50f
12:06 2 3 mph 1019.4mb 55f 50f
12:00 1 2 mph 1019.4mb 55f 50f
Mi 04/27 11:54 2
mph
1019.4mb 55f 50f
11:48 2 3 mph 1019.3mb 55f 51f
11:42  -  1 mph 1019.3mb 55f 51f
11:36  -  2 mph 1019.3mb 55f 50f
11:30 2
mph
1019.3mb 55f 50f
11:24  -  2 mph 1019.2mb 55f 50f
11:18 2 3 mph 1019.2mb 55f 50f
11:12  -  2 mph 1019.3mb 55f 51f
11:06 1 2 mph 1019.2mb 55f 50f
11:00 1 2 mph 1019.1mb 55f 51f
10:54  -  2 mph 1019.1mb 55f 51f
10:48 1 2 mph 1019.2mb 55f 51f
10:42 1 2 mph 1019.1mb 55f 51f
10:36 2 3 mph 1019mb 55f 51f
10:30 1 6 mph 1019.1mb 55f 53f
10:24 1 5 mph 1019mb 55f 52f
10:18 2 3 mph 1019mb 55f 52f
10:12  -  5 mph 1019mb 55f 52f
10:06 5 6 mph 1019mb 56f 53f
10:00 1 5 mph 1019mb 56f 53f
9:54 5 6 mph 1019mb 56f 53f
9:48 5 6 mph 1019mb 56f 53f
9:42 3 6 mph 1018.9mb 56f 53f
9:36 3 6 mph 1018.9mb 56f 53f
9:30 2 6 mph 1018.9mb 56f 53f
9:24 2 6 mph 1018.8mb 56f 53f
9:18 3 7 mph 1018.8mb 56f 53f
9:12 7
mph
1018.7mb 56f 53f
9:06 2 5 mph 1018.6mb 56f 54f
9:00  -  2 mph 1018.5mb 56f 53f
8:54 1 2 mph 1018.5mb 56f 54f
8:48  -  mph 1018.5mb 56f 54f
8:42  -  mph 1018.4mb 56f 54f
8:36  -  mph 1018.4mb 56f 54f
8:30  -  3 mph 1018.3mb 56f 54f
8:24  -  3 mph 1018.3mb 56f 54f
8:18 2 5 mph 1018.2mb 56f 55f
8:12  -  3 mph 1018.2mb 56f 55f
8:06 3 6 mph 1018.1mb 56f 55f
8:00  -  mph 1018.1mb 56f 55f
7:54  -  mph 1018.1mb 56f 55f
7:48  -  mph - 56f -
7:42  -  mph - 56f -
7:36  -  mph - 56f -
7:30  -  mph 1017.9mb 56f -
7:24  -  mph 1017.9mb 56f -
7:18 1 3 mph 1017.8mb - 56f
7:12 2 3 mph 1017.9mb - 56f
7:06 2 5 mph 1017.8mb - 56f
7:00  -  mph 1017.8mb 56f -
6:54  -  mph 1017.8mb 56f -
6:48  -  mph 1017.8mb 56f -
6:42  -  mph 1017.8mb 56f -
6:36  -  mph 1017.7mb 56f -
6:30  -  mph - 56f -
6:24  -  mph - 56f -
6:18  -  mph 1017.7mb 56f -
6:12  -  mph 1017.7mb 56f -
6:06  -  mph 1017.7mb 56f -
6:00  -  mph 1017.8mb 56f 56f
5:54  -  mph 1017.7mb 56f 55f
5:48  -  mph 1017.7mb - -
5:42  -  mph 1017.6mb - -
5:36  -  mph 1017.6mb - -
5:30  -  mph 1017.7mb 56f -
5:24  -  mph 1017.7mb 56f -
5:18 2 7 mph - 56f -
5:12 2 10 mph - 56f -
5:06 2 6 mph - 56f -
5:00  -  mph 1017.7mb 56f -
4:54  -  mph 1017.8mb 56f -
4:48  -  mph 1017.7mb 56f -
4:42  -  mph 1017.7mb 56f -
4:36  -  mph 1017.8mb 56f -
4:30  -  mph 1017.8mb 56f -
4:24  -  mph 1017.8mb 56f -
4:18  -  mph 1017.8mb 56f 56f
4:12  -  mph 1017.8mb 56f 56f
4:06  -  mph 1017.8mb 56f 56f
4:00  -  mph 1017.8mb 56f 56f
3:54  -  mph 1017.8mb 56f 56f
3:48  -  mph - 56f -
3:42  -  mph - 56f -
3:36  -  mph - 56f -
3:30  -  mph 1017.8mb 56f -
3:24  -  mph 1017.8mb 56f -
3:18 2 5 mph 1017.8mb 56f -
3:12 1 5 mph 1017.8mb 56f -
3:06  -  3 mph 1017.8mb 56f -
3:00  -  mph 1017.7mb 56f -
2:54  -  mph 1017.8mb 56f -
2:48  -  mph 1017.8mb - 56f
2:42  -  mph 1017.8mb - 56f
2:36  -  mph 1017.7mb - 57f
2:30 2 5 mph 1017.7mb 56f 56f
2:24 1 5 mph 1017.7mb 56f 56f
2:18 1 3 mph 1017.6mb 56f 56f
2:12 2 5 mph 1017.7mb 56f 55f
2:06 2 6 mph 1017.6mb 56f 55f
2:00 2 5 mph 1017.6mb 56f 56f
1:54 1 3 mph 1017.5mb 56f 56f
1:48  -  3 mph 1017.5mb 56f 57f
1:42 1 7 mph 1017.5mb 56f 55f
1:36 3 6 mph 1017.5mb 56f 54f
1:30 5 6 mph 1017.5mb 56f 53f
1:24 3 6 mph 1017.5mb 56f 54f
1:18 3 6 mph 1017.4mb 56f 54f
1:12 3 5 mph 1017.4mb 56f 54f
1:06 2 3 mph 1017.5mb 56f 54f
1:00 2 5 mph 1017.5mb 56f 54f
12:54 2 3 mph 1017.6mb 56f 55f
12:48 1 2 mph 1017.5mb 56f 54f
12:42 1 2 mph 1017.5mb 56f 53f
12:36 2 3 mph 1017.5mb 56f 53f
12:30 3
mph
1017.5mb 56f 52f
12:24 3 6 mph 1017.4mb 56f 52f
12:18 6 7 mph 1017.4mb 56f 52f
12:12 3 5 mph 1017.3mb 56f 52f
12:06 1 2 mph 1017.3mb 56f 53f
12:00 1 2 mph 1017.3mb 56f 53f
11:54 1 2 mph 1017.3mb 56f 53f
11:48  -  2 mph 1017.3mb 56f 53f
11:42 2 3 mph 1017.2mb 56f 52f
11:36 3 6 mph 1017.2mb 56f 52f
11:30 6 8 mph 1017.1mb 56f 51f
11:24 7 9 mph 1017.1mb 56f 51f
11:18 7 9 mph 1017mb 55f 51f
11:12 7 10 mph 1016.9mb 55f 51f
11:06 8 11 mph 1016.9mb 55f 51f
11:00 8 10 mph 1016.9mb 55f 51f
10:54 9 10 mph 1016.8mb 55f 51f
10:48 8 11 mph 1016.8mb 55f 51f
10:42 8 11 mph 1016.7mb 55f 51f
10:36 9 11 mph 1016.7mb 55f 51f
10:30 9 13 mph 1016.7mb 55f 50f
10:24 9 13 mph 1016.6mb 55f 51f
10:18 8 10 mph 1016.5mb 55f 51f
10:12 7 10 mph 1016.4mb 55f 51f
10:06 7 11 mph 1016.4mb 55f 51f
10:00 6 9 mph 1016.3mb 55f 51f
9:54 3 8 mph 1016.4mb 55f 51f
9:48 3 8 mph 1016.3mb 55f 50f
9:42 3 7 mph 1016.3mb 55f 51f
9:36 2 6 mph 1016.3mb 55f 51f
9:30 2 7 mph 1016.3mb 55f 50f
9:24 2 5 mph 1016.2mb 55f 51f
9:18 3 9 mph 1016.2mb 55f 50f
9:12 3 8 mph 1016.2mb 55f 50f
9:06 3 8 mph 1016.2mb 55f 50f
9:00 1 8 mph 1016.2mb 55f 50f
8:54 3 7 mph 1016.2mb 55f 49f
8:48 3 7 mph 1016.3mb 55f 49f
8:42 3 7 mph 1016.2mb 55f 49f
8:36 2 6 mph 1016.2mb 55f 49f
8:30 5 8 mph 1016.2mb 55f 49f
8:24 3 7 mph 1016.2mb 55f 49f
8:18 3 9 mph 1016.2mb 55f 49f
8:12 3 6 mph 1016.2mb 55f 49f
8:06 5 7 mph 1016.1mb 55f 49f
8:00 5 9 mph 1016.2mb 55f 49f
7:54 5 7 mph 1016.2mb 55f 48f
7:48 3 6 mph 1016.1mb 55f -
7:42 2 6 mph 1016mb 55f -
7:36 2 5 mph 1016mb 55f -
7:30 2 3 mph 1016mb 55f 48f
7:24 2
mph
1016mb 55f 48f
7:18 1 3 mph 1016mb 55f 48f
7:12 2 3 mph 1016mb 55f 48f
7:06  -  2 mph 1016mb 55f 47f
7:00  -  3 mph 1016mb 55f 47f
6:54 3 6 mph 1016mb 55f 48f
6:48 2 5 mph 1015.9mb 55f 48f
6:42  -  5 mph 1015.9mb 55f 48f
6:36  -  6 mph 1015.8mb 55f 48f
6:30 2 6 mph 1015.8mb 55f 48f
6:24 3 6 mph 1015.8mb 55f 47f
6:18 2 6 mph 1015.8mb 55f 48f
6:12 3 7 mph 1015.8mb 55f 47f
6:06 3 8 mph 1015.7mb 55f 47f
6:00 5 7 mph 1015.7mb 55f 47f
5:54 5 7 mph 1015.7mb 55f 48f
5:48 6 8 mph 1015.7mb 55f 48f
5:42 5 7 mph 1015.7mb 55f 48f
5:36 3 6 mph 1015.6mb 55f 47f
5:30 5 7 mph 1015.7mb 55f 48f
5:24 3 6 mph 1015.7mb 55f 47f
5:18 5 7 mph 1015.8mb 55f 48f
5:12 5 6 mph 1015.8mb 55f 47f
5:06 5 6 mph 1015.8mb 55f 47f
5:00 2 6 mph 1015.8mb 55f 47f
4:54 5 6 mph 1015.8mb 55f 47f
4:48 5 6 mph 1015.9mb 55f 48f
4:42 3 6 mph 1015.9mb 55f 47f
4:36 2 7 mph 1016mb 55f 47f
4:30 1 3 mph 1016mb 55f 47f
4:24 1 5 mph 1016mb 55f 47f
4:18 2 5 mph 1016.1mb 55f 47f
4:12 1 2 mph 1016.1mb 55f 47f
4:06 2 3 mph 1016.1mb 55f 47f
4:00  -  2 mph 1016.1mb 55f 47f
3:54 1 5 mph 1016.1mb 55f 47f
3:48 1 2 mph 1016.1mb 55f 47f
3:42  -  1 mph 1016.2mb 55f 47f
3:36 1 2 mph 1016.2mb 55f 47f
3:30  -  1 mph 1016.2mb 55f 47f
3:24  -  2 mph 1016.2mb 55f 47f
3:18  -  1 mph 1016.3mb 55f 47f
3:12  -  mph 1016.4mb 55f 47f
3:06  -  1 mph 1016.4mb 55f 47f
3:00  -  1 mph 1016.4mb 55f 47f
2:54  -  1 mph 1016.5mb 55f 47f
2:48  -  2 mph 1016.5mb 55f 47f
2:42  -  1 mph 1016.5mb 55f 47f
2:36  -  1 mph 1016.5mb 55f 47f
2:30  -  1 mph 1016.6mb 55f 47f
2:24  -  1 mph 1016.6mb 55f 47f
2:18 1 2 mph 1016.6mb 55f 47f
2:12 1 2 mph 1016.6mb 55f 47f
2:06  -  1 mph 1016.7mb 55f 48f
2:00 1 3 mph 1016.7mb 55f 48f
1:54 3 5 mph 1016.7mb 55f 48f
1:48 5 8 mph 1016.8mb 55f 48f
1:42 3 7 mph 1016.8mb 55f 48f
1:36 5 7 mph 1016.8mb 55f 48f
1:30 3 5 mph 1016.9mb 55f 48f
1:24 2 5 mph 1016.9mb 55f 48f
1:18 2 5 mph 1016.9mb 55f 48f
1:12 3 6 mph 1016.8mb 55f 48f
1:06 2 6 mph 1016.9mb 55f 48f
1:00 3 5 mph 1016.8mb 55f 48f
12:54 2 5 mph 1016.8mb 55f 48f
12:48 2 3 mph 1016.9mb 55f 48f
12:42 2
mph
1016.9mb 55f 47f
12:36 1 2 mph 1017mb 55f 47f
12:30 2
mph
1017mb 55f 47f
12:24 2
mph
1017mb 55f 47f
12:18 2 3 mph 1017.1mb 55f 47f
12:12 2
mph
1017.1mb 55f 48f
12:06 2
mph
1017.1mb 55f 48f
12:00 2
mph
1017.2mb 55f 48f
Di 04/26 11:54  -  2 mph 1017.2mb 55f 49f
11:48 1 2 mph 1017.2mb 55f 49f
11:42  -  2 mph 1017.3mb 55f 49f
11:36 1 2 mph 1017.4mb 55f 49f
11:30 2
mph
1017.5mb 55f 49f
11:24 1 2 mph 1017.5mb 55f 49f
11:18 1 2 mph 1017.5mb 55f 49f
11:12 2 3 mph 1017.5mb 55f 49f
11:06  -  2 mph 1017.6mb 55f 49f
11:00 1 2 mph 1017.6mb 55f 49f
10:54 1 2 mph 1017.6mb 55f 50f
10:48  -  2 mph 1017.7mb 55f -
10:42 1 2 mph 1017.7mb 55f -
10:30 1 2 mph 1017.7mb 55f 50f
10:24  -  2 mph 1017.7mb 55f 50f
10:18 2
mph
1017.8mb 55f 50f
10:12  -  2 mph 1017.7mb 55f 50f
10:06 1 2 mph 1017.8mb 55f 50f
10:00 1 2 mph 1017.8mb 55f 50f
9:54 2
mph
1017.9mb 56f 50f
9:48 1 2 mph 1017.9mb 56f 50f
9:42 1 3 mph 1017.9mb 56f 50f
9:36 2
mph
1017.9mb 56f 50f
9:30 2 3 mph 1017.9mb 56f 50f
9:24 2
mph
1017.9mb 56f 50f
9:18 2 3 mph 1017.9mb 56f 51f
9:12 2 3 mph 1017.9mb 56f 51f
9:06 2 3 mph 1017.9mb 56f 50f
9:00 1 2 mph 1017.9mb 56f 51f
8:54 1 2 mph 1017.8mb 56f 51f
8:48 2 3 mph 1017.9mb 56f 51f
8:42 2 3 mph 1017.9mb 56f 51f
8:36 2 5 mph 1017.9mb 56f 51f
8:30 3 6 mph 1017.9mb 56f 51f
8:24 5 6 mph 1018mb 56f 51f
8:18 5 7 mph 1018mb 55f 51f
8:12 6 7 mph 1018.1mb 56f 51f